This is the latest recevied weather packets stored in our database for station/object N2RDT. If no packets are shown the sender has not sent any weather packets the latest 10 day(s).
| Time | Temp. | Humidity | Pressure | Rain* | Wind** | Luminosity | Snow |
|---|---|---|---|---|---|---|---|
| 1777924795 | 25.56° C | 30% | 1014.2 hPa | 0 mm | - | 646 W/m² | - |
| 1777924491 | 25.56° C | 31% | 1014.2 hPa | 0 mm | - | 721 W/m² | - |
| 1777924188 | 25.56° C | 31% | 1014.3 hPa | 0 mm | - | 733 W/m² | - |
| 1777923884 | 25.56° C | 31% | 1014.4 hPa | 0 mm | - | 755 W/m² | - |
| 1777923580 | 25° C | 33% | 1014.6 hPa | 0 mm | - | 769 W/m² | - |
| 1777923277 | 25.56° C | 30% | 1014.7 hPa | 0 mm | - | 778 W/m² | - |
| 1777922976 | 25.56° C | 31% | 1014.7 hPa | 0 mm | - | 797 W/m² | - |
| 1777922672 | 25° C | 31% | 1014.6 hPa | 0 mm | - | 809 W/m² | - |
| 1777922372 | 25° C | 30% | 1014.6 hPa | 0 mm | - | 819 W/m² | - |
| 1777922070 | 25° C | 29% | 1014.6 hPa | 0 mm | - | 830 W/m² | - |
| 1777921770 | 25° C | 30% | 1014.6 hPa | 0 mm | - | 835 W/m² | - |
| 1777921466 | 25° C | 31% | 1014.8 hPa | 0 mm | - | 867 W/m² | - |
| 1777921163 | 25° C | 32% | 1014.9 hPa | 0 mm | - | 856 W/m² | - |
| 1777920860 | 25° C | 31% | 1014.9 hPa | 0 mm | - | 870 W/m² | - |
| 1777920555 | 24.44° C | 32% | 1014.8 hPa | 0 mm | - | 889 W/m² | - |
| 1777920251 | 23.89° C | 30% | 1015 hPa | 0 mm | - | 436 W/m² | - |
| 1777919948 | 24.44° C | 32% | 1014.8 hPa | 0 mm | - | 757 W/m² | - |
| 1777919645 | 25° C | 33% | 1015.1 hPa | 0 mm | - | 1019 W/m² | - |
| 1777919343 | 25° C | 30% | 1015.1 hPa | 0 mm | - | 989 W/m² | - |
| 1777919040 | 24.44° C | 32% | 1015.3 hPa | 0 mm | - | 938 W/m² | - |
| 1777918736 | 23.89° C | 31% | 1015.2 hPa | 0 mm | - | 923 W/m² | - |
| 1777918434 | 23.89° C | 30% | 1015.3 hPa | 0 mm | - | 925 W/m² | - |
| 1777918133 | 24.44° C | 31% | 1015.4 hPa | 0 mm | - | 930 W/m² | - |
| 1777917831 | 23.89° C | 31% | 1015.3 hPa | 0 mm | - | 934 W/m² | - |
| 1777917529 | 23.89° C | 33% | 1015.3 hPa | 0 mm | - | 927 W/m² | - |
* Rain latest hour (hover to see other rain measurements)
** Current wind speed in m/s (hover to see current wind gust speed)